Regional Weather Roundup
Issued by NWS

Home | Current Version | Previous Version | Text Only | Print | Product List | Glossary On
Versions: 1 2 3 4 5 6 7 8 9 10 11 12 13 14 15 16 17 18 19 20 21 22 23 24 25 26 27 28 29 30 31 32 33 34 35 36 37 38 39 40 41 42 43 44 45 46 47 48 49 50
000
ASHW40 PHFO 260210
RWRHI

WEATHER ROUNDUP FOR HAWAII
NATIONAL WEATHER SERVICE HONOLULU HI
400 PM HST FRI JUL 25 2014

THIS IS AN AUTOMATED REPORT THAT HAS NOT BEEN QUALITY CONTROLLED.

NOTE..."FAIR" INDICATES FEW OR NO CLOUDS BELOW 12,000 FEET WITH NO
SIGNIFICANT WEATHER AND/OR OBSTRUCTIONS TO VISIBILITY.

* - THESE SITES REPORT LIMITED FIELDS

HIZ001>004-260300-
KAUAI-NIIHAU-

CITY           SKY/WX    TMP DP  RH WIND       PRES   REMARKS
LIHUE APT      PTSUNNY   82  68  61 NE12      29.98F
PORT ALLEN*      N/A     86 N/A N/A E15G21      N/A
POIPU*           N/A     84 N/A N/A NE9G18      N/A
PRINCEVILLE*   NOT AVBL
KOKOLE POINT*  NOT AVBL
MOLOAA DAIRY*  NOT AVBL
WAIMEA HTS*    NOT AVBL
PUU OPAE*      NOT AVBL
PUU LUA*       NOT AVBL
MAKAHA RIDGE*  NOT AVBL
$$

HIZ005>011-260300-
OAHU-

CITY           SKY/WX    TMP DP  RH WIND       PRES   REMARKS
HONOLULU       PTSUNNY   86  66  51 NE10G18   29.93F
KALAELOA       PTSUNNY   88  66  48 VRB5      29.94F HX  90
KANEOHE MCB    PTSUNNY   84  68  58 NE13      29.95F
WHEELER FIELD  CLOUDY    79  67  64 NE8       29.96F
BELLOWS*       NOT AVBL
KAHUKU*        NOT AVBL
WHEELER*       NOT AVBL
WAIANAE HARBOR NOT AVBL
DILLINGHAM*      N/A     82  70  65 N3G17       N/A
KAHUKU TRN*      N/A     77  70  78 E8G20       N/A
KAWAILOA*      NOT AVBL
KII*             N/A     81  72  74 CALM        N/A
MAKUA RANGE*     N/A     84  68  58 NE7G14      N/A
OAHU FOREST NW NOT AVBL
SCHOFIELD BRK*   N/A     79  66  65 MISG        N/A
SCHOFIELD S*   NOT AVBL
WAIANAE VLY*   NOT AVBL
KUAOKALA*      NOT AVBL
HONOULIUULI*   NOT AVBL
MOKUOLOE IS*     N/A    N/A N/A N/A MISG        N/A
PALEHUA*       NOT AVBL
WAIAWA PHB*    NOT AVBL
$$

HIZ012>013-260300-
MOLOKAI-

CITY           SKY/WX    TMP DP  RH WIND       PRES   REMARKS
MOLOKAI AIRPT  MOSUNNY   82  71  69 NE16G25   29.94F
KALAUPAPA      NOT AVBL
MAKAPULAPAI*   NOT AVBL
MOLOKAI 1*     NOT AVBL
PUU ALII*      NOT AVBL
$$

HIZ016-260300-
KAHOOLAWE-

CITY           SKY/WX    TMP DP  RH WIND       PRES   REMARKS
KAHOOLAWE*     NOT AVBL
HAKIOAWA*      NOT AVBL
HONOKANAIA*      N/A     83  68  60 NE18G30   29.93F
KANELOA*         N/A     81  70  69 E21G31    30.03F
KEALIALALO*    NOT AVBL
LUA MAKIKA*    NOT AVBL
$$

HIZ014>015-260300-
LANAI-

CITY           SKY/WX    TMP DP  RH WIND       PRES   REMARKS
LANAI CITY     CLOUDY    80  67  64 NE18      29.98F
LANAI 1*       NOT AVBL
$$

HIZ017>028-260300-
MAUI-

CITY           SKY/WX    TMP DP  RH WIND       PRES   REMARKS
KAHULUI        MOSUNNY   87  66  49 NE22G28   29.91F
KAPALUA-W MAUI MOSUNNY   81  68  65 NE14      29.95
HANA AIRPORT   MOSUNNY   81  70  69 E6        29.98S
HANA*          NOT AVBL
HALEAKALA SUMM   N/A     55  16  21 E18         N/A
MAALAEA BAY*   NOT AVBL
HALEAKALA*     NOT AVBL
KAUPO GAP*     NOT AVBL
KULA 1*          N/A     60  58  93 SW3G9       N/A
$$

HIZ023>026-260300-
BIG ISLAND OF HAWAII COAST AND LOWER SLOPES-

CITY           SKY/WX    TMP DP  RH WIND       PRES   REMARKS
KAILUA KONA    MOSUNNY   85  67  54 W7        29.90F
HILO           CLOUDY    81  71  71 E9        29.94F
HONOKAA*       NOT AVBL
KAWAIHAE MWT*  NOT AVBL
KAWAIHAE*        N/A     81 N/A N/A S3          N/A
SOUTH POINT*   NOT AVBL
UPOLU AIRPORT* NOT AVBL
KAMUELA*       CLOUDY    73  64  73 NE13      30.04S
HAKALAU*         N/A     65  56  74 SE7G14      N/A
KALOKO-HONOKO* NOT AVBL
PALI 2*          N/A     79  64  61 E12G21      N/A
KEALAKOMO*       N/A     82  70  65 E15G22      N/A
KAUPULEHU*     NOT AVBL
KAPAPALA*        N/A     74  66  76 E6G16       N/A
LOWER KAHUKU*  NOT AVBL
PUHE CS*       NOT AVBL
PUHO CS*       NOT AVBL
PTA KEAMUKU*     N/A     66  63  88 S6          N/A
WAIKOLOA*      NOT AVBL
$$

HIZ027>028-260300-
BIG ISLAND OF HAWAII INTERIOR AND SUMMMITS-

CITY           SKY/WX    TMP DP  RH WIND       PRES   REMARKS
BRADSHAW FIELD PTSUNNY   63  57  82 W8        30.27F
MK VISITOR CEN NOT AVBL
MAUNA KEA*       N/A     48  -6  10 SE10        N/A
MAUNA LOA*       N/A     52  39  62 MISG        N/A
MAUNA LOA 1*   NOT AVBL
PTA KIPUKA*      N/A     66  57  72 NW8G15      N/A
PTA RANGE 17*    N/A     63  59  88 W7G14       N/A
PTA WEST*        N/A     66  59  77 NW8G17      N/A
NENE CABIN*    NOT AVBL
AHUMOA*        NOT AVBL
PTA PORTABLE*  NOT AVBL
PUU MALI*      NOT AVBL
$$

HIC003-260300-
NORTHWEST ISLANDS-

CITY           SKY/WX    TMP DP  RH WIND       PRES   REMARKS
MIDWAY ISLAND  SUNNY     88  73  62 S6        30.08F HX  96
MIDWAY NOS*    NOT AVBL
FRENCH FRIGATE NOT AVBL
$$

PHZ110>124-180-260300-
BUOY REPORTS

STATION/POSITION TIME  TEMP    WIND        PRES    WAVE   SWELL
                       AIR SEA DIR/SP/G            HT/PER HT/DIR
                 (UTC) (F)     (DEG/KT/KT) (MB)    (FT/S) (FT/D)
BUOY 51001       NOT AVBL
BUOY 51101       NOT AVBL
BUOY 51100       0200   78 78   90/ 12/ 14 1015.5F
BUOY 51003       0100   80 81  100/ 14/ 16 1013.7F   7/ 7   7
BUOY 51004       0055   80 80   60/ 16/ 17 1011.8    7/ 9   5/100
BARBERS PT BUOY  NOT AVBL
WAIMEA BAY BUOY  0200      80                N/A     3/ 7
KAILUA BAY BUOY  0200      80                N/A     5/ 8
LANAI BUOY       0200      82                N/A     2/10   2/190
BARBERS PT 2     0200      81                N/A     3/ 8   2/170
PAUWELA MAUI     0200      79                N/A     5/ 8
HILO             NOT AVBL
KANEOHE BAY BUOY 0200      80                N/A     4/ 6
HANALEI KAUAI    NOT AVBL
KAHULUI HARBOR   0200   80 81              1012.7F
HONOLULU HARBOR  0200   82                 1013.9F
KILO NALU        NOT AVBL
HILO HARBOR      0200   82                 1013.3F
MOKUOLOE         0200      82              1014.5F
NAWILIWILI       0200      80                N/A
WHOTS BUOY       NOT AVBL
BUOY 51028       NOT AVBL
$$

......................KEY........................................
  SKY/WX - SKY CONDITIONS/PRESENT WEATHER
  TMP    - TEMPERATURE IN FAHRENHEIT
  DWPT   - DEWPOINT IN FAHRENHEIT
  RH     - RELATIVE HUMIDITY IN PERCENT
  WIND   - DIRECTION AND SPEED /MPH FOR ISLANDS...KTS FOR BUOYS/
  PRES   - MEAN SEA LEVEL PRESSURE IN INCHES OF HG
  VSB    - VISIBILITY IN MILES
  HX     - HEAT INDEX
  WCI    - WIND CHILL INDEX
  VRB    - VARIABLE WIND DIRECTION
  N/A    - NOT AVAILABLE


USA.gov is the U.S. government's official web portal to all federal, state and local government web resources and services.